Station 46213 - Cape Mendocino, CA (094) Image indicating link to RSS feed of recent meteorological observations for station 46213


Conditions at 46213 as of
(11:26 am PDT)
1826 GMT on 06/23/2024:
     

Click on the graph icon in the table below to see a time series plot of the last five days of that observation.

5-day plot - Wave Height Wave Height (WVHT): 6.2 ft
5-day plot - Dominant Wave Period Dominant Wave Period (DPD): 6 sec
5-day plot - Average Wave Period Average Period (APD): 4.7 sec
5-day plot - Mean Wave Direction Mean Wave Direction (MWD):NNW ( 336 deg true )
5-day plot - Water Temperature Water Temperature (WTMP): 57.0 °F
Previous observations
TIME
(PDT)
5-day plot - Wind Direction
WDIR
 
5-day plot - Wind Speed
WSPD
kts
5-day plot - Wind Gust
GST
kts
5-day plot - Wave Height
WVHT
ft
5-day plot - Dominant Wave Period
DPD
sec
5-day plot - Average Wave Period
APD
sec
5-day plot - Mean Wave Direction
MWD
 
5-day plot - Atmospheric Pressure
PRES
in
5-day plot - Pressure Tendency
PTDY
in
5-day plot - Air Temperature
ATMP
°F
5-day plot - Water Temperature
WTMP
°F
5-day plot - Dew Point
DEWP
°F
5-day plot - Salinity
SAL
psu
5-day plot - Visibility
VIS
nmi
5-day plot - Tide (above MLLW)
TIDE
ft
2024-06-23 10:56 am--- 6.6 64.9NNW--- 57.0----
2024-06-23 10:26 am--- 6.2 64.8NNW--- 57.0----
2024-06-23 09:56 am--- 6.2 64.8NNW--- 57.0----
2024-06-23 09:26 am--- 5.6 64.6NNW--- 57.0----
2024-06-23 08:56 am--- 5.9 64.7NNW--- 57.2----
2024-06-23 08:26 am--- 5.9 64.7NNW--- 57.2----
2024-06-23 07:56 am--- 5.9 54.7NNW--- 57.2----
2024-06-23 07:26 am--- 5.9 64.8NNW--- 57.2----
2024-06-23 06:56 am--- 5.6 64.9 NW--- 57.2----
2024-06-23 06:26 am--- 5.2 54.7NNW--- 57.2----
2024-06-23 05:56 am--- 5.2 64.8NNW--- 57.2----
2024-06-23 05:26 am--- 4.9 54.9NNW--- 57.2----
2024-06-23 04:56 am--- 4.9 64.8 NW--- 57.2----
2024-06-23 04:26 am--- 4.9 54.7NNW--- 57.2----
2024-06-23 03:56 am--- 4.9 54.6NNW--- 57.6----
2024-06-23 03:26 am--- 4.6 54.3 NW--- 57.7----
2024-06-23 02:56 am--- 4.6 54.3NNW--- 57.7----
2024-06-23 02:26 am--- 4.6 44.2NNW--- 57.7----
2024-06-23 01:56 am--- 4.3 64.2 NW--- 57.4----
2024-06-23 01:26 am--- 4.3 54.3 NW--- 57.2----
2024-06-23 12:56 am--- 4.3 54.3 NW--- 57.2----
2024-06-23 12:26 am--- 4.6 64.2 NW--- 57.4----
2024-06-22 11:56 pm--- 4.6 64.3 NW--- 57.6----
2024-06-22 11:26 pm--- 4.6 64.3 NW--- 57.2----
2024-06-22 10:56 pm--- 4.9 44.3 N--- 57.2----
2024-06-22 10:26 pm--- 4.9 64.4NNW--- 57.2----
2024-06-22 09:56 pm--- 4.9 74.4 NW--- 57.4----
2024-06-22 09:26 pm--- 4.9 64.5NNW--- 57.4----
2024-06-22 08:56 pm--- 4.6 74.6 NW--- 57.4----
2024-06-22 08:26 pm--- 4.9 64.5NNW--- 57.4----
2024-06-22 07:56 pm--- 4.9 64.5 N--- 57.4----
2024-06-22 07:26 pm--- 4.9 64.5NNW--- 57.4----
2024-06-22 06:56 pm--- 4.9 64.7NNW--- 57.4----
2024-06-22 06:26 pm--- 4.9 64.7NNW--- 57.2----
2024-06-22 05:56 pm--- 4.9 74.6NNW--- 57.2----
2024-06-22 05:26 pm--- 5.2 74.9NNW--- 57.0----
2024-06-22 04:56 pm--- 5.2 75.0NNW--- 57.0----
2024-06-22 04:26 pm--- 5.6 75.0NNW--- 56.8----
2024-06-22 03:56 pm--- 5.6 75.0NNW--- 56.8----
2024-06-22 03:26 pm--- 5.6 75.0NNW--- 56.8----
2024-06-22 02:56 pm--- 5.9 75.2NNW--- 56.7----
2024-06-22 02:26 pm--- 5.6 75.0NNW--- 56.5----
2024-06-22 01:56 pm--- 5.6 85.0 NW--- 56.3----
2024-06-22 01:26 pm--- 6.9 75.4NNW--- 55.6----
2024-06-22 12:56 pm--- 6.9 75.2NNW--- 55.8----
2024-06-22 12:26 pm--- 6.6 65.1 NW--- 56.1----
2024-06-22 11:56 am--- 6.6 75.1NNW--- 55.9----
2024-06-22 11:26 am--- 6.9 75.2 NW--- 55.8----
2024-06-22 10:56 am--- 7.5 75.3NNW--- 55.9----

Detailed Wave Summary
for 46213 as of (11:26 am PDT)
1826 GMT on 06/23/2024:

These wave data are displayed in rounded times.

     

Click on the graph icon in the table below to see a time series plot of the last five days of that observation.

5-day plot - Significant Wave Height Significant Wave Height (WVHT): 6.2 ft
5-day plot - Swell Height Swell Height (SwH): 1.3 ft
5-day plot - Swell Period Swell Period (SwP): 18.2 sec
5-day plot - Swell Direction Swell Direction (SwD):SSW
5-day plot - Wind Wave Height Wind Wave Height (WWH): 5.9 ft
5-day plot - Wind Wave Period Wind Wave Period (WWP): 6.2 sec
5-day plot - Wind Wave Direction Wind Wave Direction (WWD):NNW
5-day plot - Wave Steepness Wave Steepness (STEEPNESS):VERY_STEEP
5-day plot - Average Wave Period Average Wave Period (APD): 4.7 sec
Previous observations
TIME
(PDT)
5-day plot - Wave Height
WVHT
ft
5-day plot - Swell Height
SwH
ft
5-day plot - Swell Period
SwP
sec
5-day plot - Swell Direction
SwD
 
5-day plot - Wind Wave Height
WWH
ft
5-day plot - Wind Wave Period
WWP
sec
5-day plot - Wind Wave Direction
WWD
 
5-day plot - Wave Steepness
STEEPNESS
 
5-day plot - Average Wave Period
APD
sec
2024-06-23 10:56 am 6.6 1.3 18.2 S 6.2 6.2 NNWVERY_STEEP 4.9
2024-06-23 10:26 am 6.2 1.3 18.2 S 5.9 6.2 NNWVERY_STEEP 4.8
2024-06-23 09:56 am 6.2 1.3 20.0WSW 6.2 5.9 NNWVERY_STEEP 4.8
2024-06-23 09:26 am 5.6 1.0 13.3 S 5.6 6.2 NNWVERY_STEEP 4.6
2024-06-23 08:56 am 5.9 1.0 18.2SSW 5.6 5.9 NNWVERY_STEEP 4.7
2024-06-23 08:26 am 5.9 1.3 18.2 S 5.9 5.6 NNWVERY_STEEP 4.7
2024-06-23 07:56 am 5.9 1.3 18.2 S 5.6 5.3 NNWVERY_STEEP 4.7
2024-06-23 07:26 am 5.9 1.3 13.3SSW 5.6 5.9 NNWVERY_STEEP 4.8
2024-06-23 06:56 am 5.6 1.0 13.3SSW 5.6 6.2 NWVERY_STEEP 4.9
2024-06-23 06:26 am 5.2 1.0 18.2SSW 4.9 5.3 NNWVERY_STEEP 4.7
2024-06-23 05:56 am 5.2 1.0 20.0 S 5.2 5.6 NNWVERY_STEEP 4.8
2024-06-23 05:26 am 4.9 1.0 14.3SSW 4.9 5.3 NNWVERY_STEEP 4.9
2024-06-23 04:56 am 4.9 1.0 20.0SSW 4.9 5.6 NWVERY_STEEP 4.8
2024-06-23 04:26 am 4.9 1.0 14.3SSW 4.9 5.0 NNWVERY_STEEP 4.7
2024-06-23 03:56 am 4.9 1.0 14.3 S 4.9 5.0 NNWVERY_STEEP 4.6
2024-06-23 03:26 am 4.6 1.0 20.0 S 4.6 5.0 NWVERY_STEEP 4.3
2024-06-23 02:56 am 4.6 1.0 11.8WSW 4.6 4.8 NNWVERY_STEEP 4.3
2024-06-23 02:26 am 4.6 1.0 13.3SSW 4.6 4.0 NNWVERY_STEEP 4.2
2024-06-23 01:56 am 4.3 1.0 14.3 SW 3.9 5.6 NWVERY_STEEP 4.2
2024-06-23 01:26 am 4.3 1.0 14.3 S 4.3 5.3 NWVERY_STEEP 4.3
2024-06-23 12:56 am 4.3 1.0 14.3SSE 4.3 5.3 NWVERY_STEEP 4.3
2024-06-23 12:26 am 4.6 1.0 11.8 SW 4.3 6.2 NW STEEP 4.2
2024-06-22 11:56 pm 4.6 1.0 20.0 S 4.3 5.9 NW STEEP 4.3
2024-06-22 11:26 pm 4.6 1.3 12.5 SW 4.3 6.2 NW STEEP 4.3
2024-06-22 10:56 pm 4.9 1.0 12.5SSW 4.6 4.2 NVERY_STEEP 4.3
2024-06-22 10:26 pm 4.9 1.0 11.8 SW 4.6 5.9 NNWVERY_STEEP 4.4
2024-06-22 09:56 pm 4.9 1.0 20.0SSE 4.9 6.7 NW STEEP 4.4
2024-06-22 09:26 pm 4.9 1.0 14.3 S 4.6 6.2 NNW STEEP 4.5
2024-06-22 08:56 pm 4.6 1.0 14.3 S 4.6 6.7 NW STEEP 4.6
2024-06-22 08:26 pm 4.9 1.0 14.3 S 4.6 5.9 NNWVERY_STEEP 4.5
2024-06-22 07:56 pm 4.9 1.0 14.3SSW 4.9 5.9 NVERY_STEEP 4.5
2024-06-22 07:26 pm 4.9 1.0 14.3 SE 4.6 6.2 NNW STEEP 4.5
2024-06-22 06:56 pm 4.9 1.0 20.0SSE 4.9 6.2 NNW STEEP 4.7
2024-06-22 06:26 pm 4.9 1.0 14.3 SW 4.9 6.2 NNW STEEP 4.7
2024-06-22 05:56 pm 4.9 1.0 14.3 S 4.9 6.7 NNW STEEP 4.6
2024-06-22 05:26 pm 5.2 1.0 12.5 SW 4.9 6.7 NNW STEEP 4.9
2024-06-22 04:56 pm 5.2 1.0 14.3SSW 5.2 7.1 NNW STEEP 5.0
2024-06-22 04:26 pm 5.2 1.0 13.3SSW 5.2 6.7 NNW STEEP 5.0
2024-06-22 03:56 pm 5.6 1.0 12.5 SW 5.2 6.7 NNW STEEP 5.0
2024-06-22 03:26 pm 5.6 1.0 14.3 S 5.6 7.1 NNW STEEP 5.0
2024-06-22 02:56 pm 5.9 1.0 14.3 SW 5.6 7.1 NNW STEEP 5.2
2024-06-22 02:26 pm 5.6 1.0 12.5SSW 5.2 6.7 NNW STEEP 5.0
2024-06-22 01:56 pm 5.6 1.0 14.3SSW 5.6 7.7 NW STEEP 5.0
2024-06-22 01:26 pm 6.6 1.0 14.3SSW 6.6 7.1 NNW STEEP 5.4
2024-06-22 12:56 pm 6.9 1.0 12.5 SW 6.6 7.1 NNW STEEP 5.2
2024-06-22 12:26 pm 6.6 1.0 14.3 S 6.6 6.2 NWVERY_STEEP 5.1
2024-06-22 11:56 am 6.6 1.0 14.3 S 6.2 7.1 NNW STEEP 5.1
2024-06-22 11:26 am 6.9 1.3 12.5SSW 6.9 7.1 NW STEEP 5.2
2024-06-22 10:56 am 7.2 1.0 12.5WNW 7.2 7.1 NNW STEEP 5.3

Plot of wave energy versus frequency (and period)